Tegucigalpa, Honduras

1:14 PM CST on May 29, 2017 (GMT -0600)
Toncontin International

Weather History for MHTG - March, 2013

Change the Weather History Date:

Thursday, March 14, 2013

  Actual Average Record
Temperature  
Mean Temperature 64 °F -  
Max Temperature 69 °F 84 °F 93 °F (1997)
Min Temperature 60 °F 61 °F 53 °F (2001)
Growing Degree Days 14 (Base 50)    
Moisture  
Dew Point 60 °F    
Average Humidity 87    
Maximum Humidity 100    
Minimum Humidity 60    
Precipitation  
Precipitation 0.00 in 0.03 in - ()
Sea Level Pressure  
Sea Level Pressure 30.11 in    
Wind  
Wind Speed 13 mph ()    
Max Wind Speed 20 mph    
Max Gust Speed -    
Visibility 5.8 miles    
Events      
Averages and records for this station are not official NWS values.
T = Trace of Precipitation, MM = Missing Value Source: Averaged Metar Reports

Daily Weather History Graph

Daily Weather History Graph

Search for Another Location

Airport or City:

Trip Planner

Search our weather history database for the weather conditions in past years. The results will help you decide how hot, cold, wet, or windy it might be!

Date:

Astronomy

Mar. 14, 2013 Rise Set
Actual Time 5:56 AM CST 5:59 PM CST
Civil Twilight 5:35 AM CST 6:20 PM CST
Nautical Twilight 5:10 AM CST 6:45 PM CST
Astronomical Twilight 4:46 AM CST 7:09 PM CST
Moon 7:45 AM CST (3/14) 8:35 PM CST (3/14)
Length of Visible Light 12h 44m
Length of Day
12h 02m
Waxing Crescent, 9% of the Moon is Illuminated
Mar 14
Waxing Crescent
Mar 19
First Quarter
Mar 27
Full
Apr 2
Last Quarter
Apr 10
New

Hourly Weather History & Observations

Time (CST) Temp. Dew Point Humidity Pressure Visibility Wind Dir Wind Speed Gust Speed Precip Events Conditions
12:00 AM 62.6 °F 62.6 °F 100% 30.15 in 5.6 mi North 15.0 mph - N/A   Mostly Cloudy
1:00 AM 60.8 °F 60.8 °F 100% 30.12 in 5.6 mi North 17.3 mph - N/A   Mostly Cloudy
2:00 AM 60.8 °F 60.8 °F 100% 30.12 in 5.6 mi North 13.8 mph - N/A   Mostly Cloudy
3:00 AM 61 °F 61 °F 100% 30.00 in 6 mi North 11.5 mph - -   Haze
3:00 AM 60.8 °F 60.8 °F 100% 30.09 in 6.2 mi North 11.5 mph - N/A   Mostly Cloudy
4:00 AM 62.6 °F 60.8 °F 94% 30.09 in 6.2 mi North 13.8 mph - N/A   Mostly Cloudy
5:00 AM 62.6 °F 60.8 °F 94% 30.09 in 5.6 mi North 15.0 mph - N/A   Mostly Cloudy
6:00 AM 62 °F 62 °F 99% 30.01 in 6 mi North 15.0 mph - -   Mostly Cloudy
6:00 AM 62.6 °F 62.6 °F 100% 30.12 in 5.6 mi North 15.0 mph - N/A   Mostly Cloudy
7:00 AM 62.6 °F 60.8 °F 94% 30.15 in 6.2 mi North 13.8 mph - N/A   Mostly Cloudy
8:00 AM 62.6 °F 62.6 °F 100% 30.18 in 5.0 mi North 16.1 mph - N/A   Mostly Cloudy
9:00 AM 67 °F 56 °F 60% 30.04 in 6 mi North 13.8 mph - -   Haze
9:00 AM 64.4 °F 60.8 °F 88% 30.18 in 6.2 mi North 16.1 mph - N/A   Mostly Cloudy
10:00 AM 68.0 °F 62.6 °F 83% 30.18 in 6.2 mi North 17.3 mph - N/A   Scattered Clouds
11:00 AM 68.0 °F 60.8 °F 78% 30.18 in 6.2 mi North 19.6 mph - N/A   Scattered Clouds
12:00 PM 65 °F 61 °F 81% 30.03 in 4 mi North 17.3 mph - -   Mostly Cloudy
12:00 PM 64.4 °F 60.8 °F 88% 30.15 in 3.7 mi North 17.3 mph - N/A   Mostly Cloudy
1:00 PM 66.2 °F 60.8 °F 83% 30.15 in 6.2 mi North 17.3 mph - N/A   Mostly Cloudy
2:00 PM 68.0 °F 62.6 °F 83% 30.12 in 6.2 mi North 13.8 mph - N/A   Mostly Cloudy
3:00 PM 67 °F 60 °F 70% 29.94 in 6 mi North 17.3 mph - -   Mostly Cloudy
3:00 PM 66.2 °F 59.0 °F 78% 30.09 in 6.2 mi North 17.3 mph - N/A   Mostly Cloudy
4:00 PM 68.0 °F 59.0 °F 73% 30.09 in 6.2 mi North 13.8 mph - N/A   Scattered Clouds
5:00 PM 64.4 °F 57.2 °F 77% 30.09 in 6.2 mi NE 11.5 mph - N/A   Mostly Cloudy
6:00 PM 64 °F 57 °F 72% 30.00 in 6 mi NE 9.2 mph - -   Mostly Cloudy
6:00 PM 64.4 °F 57.2 °F 77% 30.12 in 6.2 mi NE 9.2 mph - N/A   Mostly Cloudy
7:00 PM 62.6 °F 57.2 °F 82% 30.15 in 6.2 mi North 11.5 mph - N/A   Mostly Cloudy
8:00 PM 62.6 °F 59.0 °F 88% 30.15 in 6.2 mi NNE 11.5 mph - N/A   Mostly Cloudy
9:00 PM 61 °F 58 °F 88% 30.08 in 6 mi NNE 12.7 mph - -   Mostly Cloudy
9:00 PM 60.8 °F 59.0 °F 94% 30.18 in 6.2 mi NNE 12.7 mph - N/A   Mostly Cloudy
10:00 PM 60.8 °F 59.0 °F 94% 30.18 in 4.3 mi North 17.3 mph - N/A   Light Drizzle
11:00 PM 60.8 °F 59.0 °F 94% 30.18 in 5.0 mi NNE 15.0 mph - N/A   Mostly Cloudy